Radiation Dose at Monitoring Post of Fukushima Daini Nuclear Power Station
Date,Time,MP-1(microSv/h),MP-2(microSv/h),MP-3(microSv/h),MP-4(microSv/h),MP-5(microSv/h),MP-6(microSv/h),MP-7(microSv/h),Wind Direction,Wind Velocity(m/s),Rain
2015/08/15,00:00,0.502,0.290,0.519,0.472,0.456,0.234,0.203,north-northwest,7.4,Yes
2015/08/15,00:10,0.510,0.288,0.524,0.479,0.459,0.233,0.202,north-northwest,7.0,Yes
2015/08/15,00:20,0.503,0.287,0.525,0.475,0.455,0.234,0.203,north-northwest,7.3,Yes
2015/08/15,00:30,0.503,0.291,0.519,0.469,0.459,0.235,0.203,north-northwest,7.2,Yes
2015/08/15,00:40,0.509,0.287,0.524,0.479,0.459,0.232,0.204,north-northwest,7.1,No
2015/08/15,00:50,0.503,0.286,0.525,0.473,0.453,0.234,0.203,north-northwest,6.2,Yes
2015/08/15,01:00,0.502,0.291,0.521,0.473,0.458,0.234,0.202,north-northwest,5.5,Yes
2015/08/15,01:10,0.509,0.288,0.523,0.480,0.457,0.233,0.203,north,6.0,Yes
2015/08/15,01:20,0.503,0.287,0.524,0.475,0.453,0.234,0.203,north-northwest,5.3,Yes
2015/08/15,01:30,0.502,0.288,0.518,0.473,0.460,0.234,0.201,north,5.4,Yes
2015/08/15,01:40,0.507,0.286,0.525,0.478,0.458,0.233,0.204,north,5.6,Yes
2015/08/15,01:50,0.504,0.288,0.526,0.475,0.452,0.233,0.203,north-northwest,5.7,Yes
2015/08/15,02:00,0.503,0.290,0.518,0.472,0.459,0.235,0.202,north-northwest,5.6,Yes
2015/08/15,02:10,0.506,0.287,0.526,0.479,0.456,0.235,0.204,north-northwest,5.8,Yes
2015/08/15,02:20,0.505,0.289,0.524,0.474,0.454,0.236,0.203,north-northwest,5.6,Yes
2015/08/15,02:30,0.505,0.289,0.520,0.475,0.460,0.234,0.203,north,5.2,Yes
2015/08/15,02:40,0.508,0.288,0.527,0.480,0.456,0.234,0.204,north-northwest,5.3,Yes
2015/08/15,02:50,0.504,0.291,0.522,0.474,0.453,0.236,0.202,north,4.2,Yes
2015/08/15,03:00,0.506,0.290,0.519,0.473,0.460,0.234,0.204,north-northwest,3.6,Yes
2015/08/15,03:10,0.508,0.288,0.525,0.479,0.454,0.235,0.204,north,3.8,Yes
2015/08/15,03:20,0.502,0.291,0.523,0.474,0.455,0.234,0.202,north,3.7,Yes
2015/08/15,03:30,0.503,0.290,0.517,0.475,0.458,0.233,0.204,north,3.6,No
2015/08/15,03:40,0.508,0.286,0.528,0.476,0.454,0.234,0.203,north,3.3,No
2015/08/15,03:50,0.502,0.289,0.523,0.472,0.457,0.233,0.201,north,2.4,No
2015/08/15,04:00,0.503,0.287,0.518,0.475,0.458,0.233,0.203,north,3.0,No
2015/08/15,04:10,0.506,0.287,0.525,0.477,0.453,0.233,0.201,north,3.9,No
2015/08/15,04:20,0.502,0.288,0.521,0.470,0.456,0.231,0.200,north,3.8,No
2015/08/15,04:30,0.501,0.285,0.518,0.477,0.456,0.232,0.201,north,4.3,No
2015/08/15,04:40,0.507,0.285,0.524,0.475,0.452,0.232,0.201,north,4.4,No
2015/08/15,04:50,0.501,0.288,0.521,0.471,0.460,0.232,0.202,north-northwest,5.2,No
2015/08/15,05:00,0.501,0.284,0.518,0.477,0.456,0.232,0.201,north,5.0,No
2015/08/15,05:10,0.506,0.287,0.525,0.474,0.452,0.231,0.200,north,5.2,No
2015/08/15,05:20,0.500,0.288,0.519,0.470,0.458,0.231,0.201,north,5.2,No
2015/08/15,05:30,0.503,0.284,0.518,0.478,0.456,0.233,0.200,north,3.9,No
2015/08/15,05:40,0.507,0.288,0.524,0.475,0.451,0.231,0.201,north,4.2,No
2015/08/15,05:50,0.500,0.287,0.520,0.471,0.456,0.232,0.202,north,4.4,No
2015/08/15,06:00,0.500,0.285,0.519,0.477,0.453,0.233,0.200,north,4.5,No
2015/08/15,06:10,0.507,0.287,0.524,0.474,0.453,0.230,0.201,north,4.4,No
2015/08/15,06:20,0.502,0.286,0.521,0.470,0.458,0.233,0.201,north,3.8,No
2015/08/15,06:30,0.500,0.285,0.517,0.477,0.455,0.232,0.201,north,3.8,No
2015/08/15,06:40,0.505,0.286,0.524,0.474,0.451,0.231,0.201,north,4.0,No
2015/08/15,06:50,0.501,0.286,0.520,0.469,0.458,0.232,0.201,north-northwest,4.1,No
2015/08/15,07:00,0.499,0.284,0.516,0.475,0.452,0.232,0.200,north,4.5,No
2015/08/15,07:10,0.507,0.288,0.524,0.477,0.451,0.231,0.199,north,4.4,No
2015/08/15,07:20,0.504,0.288,0.523,0.471,0.460,0.233,0.202,north,3.6,No
2015/08/15,07:30,0.497,0.284,0.517,0.468,0.457,0.234,0.201,north,1.4,No
2015/08/15,07:40,0.503,0.285,0.513,0.475,0.453,0.231,0.200,east-northeast,1.4,No
2015/08/15,07:50,0.504,0.284,0.522,0.476,0.450,0.232,0.200,-,CALM,No
2015/08/15,08:00,0.502,0.284,0.523,0.472,0.457,0.233,0.200,north,1.0,No
2015/08/15,08:10,0.499,0.283,0.517,0.469,0.457,0.233,0.199,west,0.8,No
2015/08/15,08:20,0.496,0.283,0.514,0.469,0.454,0.233,0.200,northeast,1.3,No
2015/08/15,08:30,0.501,0.285,0.519,0.469,0.452,0.232,0.200,east-northeast,1.3,No
2015/08/15,08:40,0.505,0.284,0.525,0.471,0.451,0.232,0.201,east,1.0,No
2015/08/15,08:50,0.505,0.286,0.521,0.478,0.451,0.232,0.200,east,1.0,No
2015/08/15,09:00,0.502,0.289,0.517,0.477,0.456,0.233,0.201,east-southeast,1.5,No
2015/08/15,09:10,0.499,0.288,0.515,0.474,0.459,0.233,0.200,east-southeast,1.9,No
2015/08/15,09:20,0.500,0.287,0.523,0.471,0.458,0.233,0.201,east-southeast,2.0,No
2015/08/15,09:30,0.506,0.285,0.523,0.471,0.456,0.233,0.200,east-southeast,2.3,No
2015/08/15,09:40,0.507,0.286,0.521,0.472,0.456,0.232,0.201,east-southeast,2.5,No
2015/08/15,09:50,0.505,0.284,0.518,0.473,0.454,0.232,0.201,east,2.5,No
2015/08/15,10:00,0.503,0.286,0.517,0.473,0.455,0.232,0.201,east-southeast,2.3,No
2015/08/15,10:10,0.503,0.285,0.516,0.474,0.453,0.232,0.202,east-southeast,2.2,No
2015/08/15,10:20,0.502,0.285,0.517,0.474,0.453,0.233,0.202,east-southeast,2.0,No
2015/08/15,10:30,0.504,0.286,0.516,0.474,0.456,0.233,0.202,east-southeast,2.2,No
2015/08/15,10:40,0.504,0.285,0.517,0.476,0.457,0.233,0.203,east,1.9,No
2015/08/15,10:50,0.505,0.286,0.518,0.476,0.458,0.233,0.203,east-southeast,2.3,No
2015/08/15,11:00,0.505,0.287,0.521,0.478,0.455,0.233,0.202,southeast,2.5,No
2015/08/15,11:10,0.503,0.287,0.522,0.478,0.458,0.233,0.203,east-southeast,2.5,No
2015/08/15,11:20,0.504,0.287,0.521,0.476,0.458,0.234,0.203,southeast,3.3,No
2015/08/15,11:30,0.507,0.287,0.523,0.477,0.457,0.233,0.203,east-southeast,3.1,No
2015/08/15,11:40,0.507,0.286,0.522,0.478,0.456,0.234,0.203,east-southeast,2.9,No
2015/08/15,11:50,0.505,0.286,0.521,0.475,0.460,0.234,0.203,east-southeast,2.7,No
2015/08/15,12:00,0.506,0.287,0.523,0.476,0.459,0.233,0.203,east-southeast,2.8,No
2015/08/15,12:10,0.505,0.287,0.524,0.478,0.458,0.234,0.205,southeast,2.0,No
2015/08/15,12:20,0.507,0.288,0.523,0.477,0.457,0.233,0.203,east-southeast,3.2,No
2015/08/15,12:30,0.505,0.289,0.522,0.477,0.459,0.233,0.204,southeast,2.9,No
2015/08/15,12:40,0.506,0.288,0.523,0.477,0.460,0.234,0.204,south-southeast,2.7,No
2015/08/15,12:50,0.505,0.287,0.524,0.477,0.458,0.233,0.204,south-southeast,3.1,No
2015/08/15,13:00,0.504,0.287,0.525,0.478,0.458,0.235,0.204,south-southeast,4.2,No
2015/08/15,13:10,0.505,0.289,0.523,0.478,0.460,0.235,0.204,south-southeast,3.3,No
2015/08/15,13:20,0.503,0.289,0.524,0.477,0.460,0.234,0.203,south-southeast,3.5,No
2015/08/15,13:30,0.504,0.288,0.526,0.478,0.458,0.234,0.203,south-southeast,2.7,No
2015/08/15,13:40,0.505,0.288,0.521,0.479,0.459,0.233,0.203,southeast,3.0,No
2015/08/15,13:50,0.505,0.288,0.524,0.479,0.459,0.235,0.204,east-southeast,2.6,No
2015/08/15,14:00,0.503,0.290,0.524,0.479,0.458,0.234,0.204,east-southeast,2.0,No
2015/08/15,14:10,0.504,0.289,0.524,0.476,0.457,0.233,0.203,northeast,4.2,No
2015/08/15,14:20,0.502,0.288,0.521,0.475,0.458,0.233,0.202,northeast,3.9,No
2015/08/15,14:30,0.507,0.285,0.519,0.474,0.455,0.232,0.201,east-northeast,3.6,No
2015/08/15,14:40,0.511,0.286,0.519,0.474,0.454,0.234,0.202,east-northeast,2.7,No
2015/08/15,14:50,0.510,0.285,0.519,0.474,0.454,0.235,0.203,east-southeast,1.5,No
2015/08/15,15:00,0.506,0.288,0.524,0.480,0.454,0.236,0.203,south-southeast,2.2,No
2015/08/15,15:10,0.504,0.289,0.528,0.481,0.454,0.235,0.204,southeast,1.9,No
2015/08/15,15:20,0.505,0.289,0.526,0.481,0.457,0.235,0.203,south-southwest,2.2,No
2015/08/15,15:30,0.503,0.288,0.525,0.479,0.457,0.233,0.203,south,1.7,No
2015/08/15,15:40,0.509,0.288,0.524,0.475,0.459,0.234,0.202,south,3.3,No
2015/08/15,15:50,0.512,0.288,0.523,0.475,0.457,0.234,0.202,south-southwest,3.0,No
2015/08/15,16:00,0.508,0.287,0.520,0.477,0.456,0.235,0.202,south-southwest,3.3,No
2015/08/15,16:10,0.506,0.285,0.525,0.485,0.457,0.235,0.204,south-southwest,3.6,No
2015/08/15,16:20,0.504,0.289,0.528,0.483,0.457,0.235,0.205,south-southwest,3.5,No
2015/08/15,16:30,0.503,0.291,0.526,0.480,0.459,0.235,0.203,south-southwest,2.5,No
2015/08/15,16:40,0.504,0.290,0.523,0.478,0.459,0.235,0.203,south-southwest,2.8,No
2015/08/15,16:50,0.511,0.288,0.522,0.479,0.459,0.235,0.203,south,2.9,No
2015/08/15,17:00,0.512,0.288,0.529,0.484,0.458,0.235,0.205,south-southwest,3.1,No
2015/08/15,17:10,0.508,0.288,0.529,0.482,0.460,0.237,0.204,south,1.9,No
2015/08/15,17:20,0.506,0.292,0.525,0.479,0.460,0.236,0.203,south,3.0,No
2015/08/15,17:30,0.503,0.291,0.521,0.478,0.460,0.235,0.203,south,3.6,No
2015/08/15,17:40,0.512,0.288,0.525,0.481,0.460,0.236,0.204,south,3.9,No
2015/08/15,17:50,0.511,0.287,0.530,0.484,0.458,0.235,0.205,south,3.5,No
2015/08/15,18:00,0.508,0.291,0.527,0.481,0.459,0.236,0.204,south-southeast,3.6,No
2015/08/15,18:10,0.505,0.291,0.525,0.476,0.465,0.236,0.203,south-southeast,2.8,No
2015/08/15,18:20,0.509,0.288,0.527,0.482,0.463,0.235,0.205,south-southeast,2.5,No
2015/08/15,18:30,0.513,0.288,0.530,0.485,0.458,0.235,0.206,southeast,2.1,No
2015/08/15,18:40,0.506,0.291,0.527,0.479,0.462,0.236,0.203,south-southeast,1.9,No
2015/08/15,18:50,0.505,0.289,0.524,0.476,0.466,0.234,0.205,south-southeast,1.4,No
2015/08/15,19:00,0.511,0.287,0.528,0.484,0.461,0.234,0.204,south-southeast,1.2,No
2015/08/15,19:10,0.510,0.289,0.527,0.483,0.457,0.236,0.203,southeast,0.8,No
2015/08/15,19:20,0.507,0.291,0.525,0.479,0.463,0.235,0.204,south-southeast,1.1,No
2015/08/15,19:30,0.506,0.289,0.522,0.477,0.462,0.234,0.205,south,1.7,No
2015/08/15,19:40,0.513,0.287,0.531,0.483,0.460,0.235,0.204,south,1.8,No
2015/08/15,19:50,0.509,0.291,0.527,0.485,0.455,0.236,0.204,south,2.5,No
2015/08/15,20:00,0.503,0.289,0.524,0.479,0.463,0.235,0.204,south,2.1,No
2015/08/15,20:10,0.509,0.287,0.524,0.476,0.464,0.233,0.204,south,2.5,No
2015/08/15,20:20,0.513,0.289,0.530,0.485,0.459,0.234,0.204,south,1.7,No
2015/08/15,20:30,0.509,0.290,0.526,0.483,0.456,0.234,0.204,south-southwest,1.5,No
2015/08/15,20:40,0.504,0.288,0.523,0.477,0.462,0.234,0.205,south-southwest,1.6,No
2015/08/15,20:50,0.510,0.287,0.527,0.474,0.463,0.236,0.206,south,1.3,No
2015/08/15,21:00,0.512,0.292,0.528,0.483,0.460,0.235,0.204,south-southwest,2.0,No
2015/08/15,21:10,0.508,0.291,0.527,0.484,0.455,0.235,0.203,south,2.0,No
2015/08/15,21:20,0.503,0.288,0.522,0.478,0.463,0.234,0.206,south,1.2,No
2015/08/15,21:30,0.513,0.289,0.529,0.476,0.464,0.236,0.204,south,1.5,No
2015/08/15,21:40,0.510,0.292,0.526,0.485,0.459,0.236,0.203,south-southeast,0.9,No
2015/08/15,21:50,0.506,0.288,0.524,0.481,0.459,0.236,0.205,south,1.7,No
2015/08/15,22:00,0.507,0.288,0.525,0.477,0.464,0.236,0.206,south,1.6,No
2015/08/15,22:10,0.512,0.290,0.531,0.476,0.462,0.234,0.205,south,1.6,No
2015/08/15,22:20,0.510,0.290,0.527,0.486,0.458,0.236,0.204,south-southwest,1.6,No
2015/08/15,22:30,0.505,0.288,0.523,0.482,0.460,0.235,0.206,south-southwest,1.1,No
2015/08/15,22:40,0.508,0.291,0.532,0.478,0.466,0.236,0.206,south-southwest,1.4,No
2015/08/15,22:50,0.515,0.290,0.531,0.483,0.462,0.236,0.205,south-southwest,2.2,No
2015/08/15,23:00,0.508,0.289,0.525,0.487,0.460,0.236,0.207,south-southwest,2.3,No
2015/08/15,23:10,0.508,0.292,0.528,0.481,0.469,0.237,0.207,south-southwest,3.7,No
2015/08/15,23:20,0.515,0.291,0.534,0.480,0.467,0.237,0.206,south-southwest,4.4,No
2015/08/15,23:30,0.510,0.291,0.527,0.487,0.460,0.236,0.206,south-southwest,3.8,No
2015/08/15,23:40,0.506,0.291,0.526,0.481,0.462,0.237,0.206,south-southwest,3.3,No
2015/08/15,23:50,0.513,0.293,0.532,0.479,0.465,0.236,0.204,south-southwest,2.9,No
